Find Starlink 2621

NORAD ID: 48370 Int'l Des: 2021-038 Owner: SPXS Country: US Constellation: starlink operational
LEOCIRCULAR

現在のビュー

3D地球を読み込み中...

About Starlink 2621

Starlink 2621 (NORAD 48370) is a starlink constellation satellite (v1.0) launched May 4, 2021 by SPXS of US. It operates in LEO, CIRCULAR orbit with a mass of 260.00 kg.

次回通過

Passes for default location (London). Set your location on the main map for personalized predictions.

高度履歴

Loading altitude history...

軌道要素

1 48370U 21038T 26246.15281877 .00002080 00000-0 78777-4 0 9995
2 48370 53.1596 241.9105 0001294 90.5926 269.5223 15.31697595294412
Epoch: Sep 3, 2026 • Age: 22 hours

現在のステータス

高度 471.6 km
遠地点 / 近地点 N/A
速度 7.63 km/s
衛星直下点 0.86°N, 128.85°W
打ち上げ日 May 4, 2021
運用期間 5.3 years
タイプ internet

技術仕様

分類 Payload
質量 260.00 kg
乾燥質量 248.00 kg
総質量 260.00 kg
長さ 0.20 m
直径 2.80 m
スパン 9.00 m
形状 Box + pan
製造者 SPXS
バスタイプ Starlink
フェーズステータス In Orbit
所有者/国 SPXS/US

Most Searched